Regional Weather Roundup
Issued by NWS

Home | Current Version | Previous Version | Graphics & Text | Print | Product List | Glossary Off
Versions: 1 2 3 4 5 6 7 8 9 10 11 12 13 14 15 16 17 18 19 20 21 22 23 24 25 26 27 28 29 30 31 32 33 34 35 36 37 38 39 40 41 42 43 44 45 46 47 48 49 50

000
ASUS43 KTOP 061059
RWRKS

WEATHER ROUNDUP FOR KANSAS
NATIONAL WEATHER SERVICE GOODLAND KS
500 AM CST FRI MAR 06 2015

NOTE:  "FAIR" INDICATES FEW OR NO CLOUDS BELOW 12,000 FEET WITH NO
SIGNIFICANT WEATHER AND/OR OBSTRUCTIONS TO VISIBILITY.

KSZ001>006-013>018-027>032-041>047-061200-
NORTHWEST KANSAS

CITY           SKY/WX    TMP DP  RH WIND       PRES   REMARKS
GOODLAND       CLEAR     26  20  77 W10       30.24F WCI  16
HAYS           CLEAR     27  12  54 SW8       30.27S
HILL CITY      CLEAR     27  18  69 W9        30.26R
RUSSELL        CLEAR     23  16  74 SW10      30.26S WCI  12
$$

KSZ061>065-074>080-084>089-061200-
SOUTHWEST KANSAS

CITY           SKY/WX    TMP DP  RH WIND       PRES   REMARKS
DODGE CITY     CLEAR     28  18  66 SW12      30.29S WCI  18
ELKHART          N/A     30  21  69 W8          N/A
GARDEN CITY    CLEAR     23  18  81 W8        30.27S
GREAT BEND     CLEAR     27  18  69 SW9       30.29S
LIBERAL        CLEAR     25  18  74 SW7       30.30F
$$

KSZ066>073-081>083-090>101-061200-
SOUTHEAST KANSAS

CITY           SKY/WX    TMP DP  RH WIND       PRES   REMARKS
CHANUTE        CLEAR     26  19  74 S12       30.41F WCI  16
COFFEYVILLE    CLEAR     25  19  78 S10       30.46S WCI  15
HUTCHINSON     CLEAR     26  20  77 S7        30.33S
MEDICINE LODGE   N/A     24  20  84 S5        30.35S
NEWTON         CLEAR     28  18  64 SW15      30.34S WCI  17
PARSONS        CLEAR     25  19  78 S7        30.45S
WICHITA INTL   CLEAR     25  18  74 S8        30.37R
WICHITA JABRA  CLEAR     29  18  63 S16       30.36S WCI  17
WICHITA MCCONL CLEAR     27  19  70 S10       30.37R WCI  17
WINFIELD       CLEAR     28  19  69 S12       30.41S WCI  18
$$

KSZ007>012-019>026-033>040-048>060-102>105-061200-
NORTHEAST KANSAS

CITY           SKY/WX    TMP DP  RH WIND       PRES   REMARKS
CONCORDIA      CLEAR     29  17  61 SW12      30.25R WCI  19
EMPORIA        FAIR      30  19  63 SW12      30.34R WCI  20
LAWRENCE       CLEAR     27  17  66 S8        30.33F
MANHATTAN      CLEAR     28  21  75 SW7       30.30S
OLATHE IND     CLEAR     24  17  74 S16       30.33F WCI  11
OLATHE EXE     CLEAR     26  18  71 S12       30.33F WCI  16
SALINA         CLEAR     25  19  78 S6        30.30S
TOPEKA BILLARD CLEAR     29  18  63 SW8       30.32S
TOPEKA FORBES  CLEAR     29  18  63 S17G23    30.30F WCI  17
$$



USA.gov is the U.S. government's official web portal to all federal, state and local government web resources and services.